Regional Weather Roundup
Issued by NWS Portland, ME

Current Version | Previous Version | Text Only | Print | Product List | Glossary Off
Versions: 1 2 3 4 5 6 7 8 9 10 11 12 13 14 15 16 17 18 19 20 21 22 23 24 25 26 27 28 29 30 31 32 33 34 35 36 37 38 39 40 41 42 43 44 45 46 47 48 49 50
000 ASUS41 KGYX 191305 RWRGYX WEATHER ROUNDUP FOR MAINE AND NEW HAMPSHIRE NATIONAL WEATHER SERVICE GRAY ME 900 AM EDT TUE JUN 19 2018 MEZ002-005-006-010-012-015-018-020-021-024-026-027-029-191400- MAINE CITY SKY/WX TMP DP RH WIND PRES REMARKS PORTLAND PTSUNNY 73 57 57 NW13G25 29.71R SANFORD FAIR 73 59 61 NW9 29.72S BAR HARBOR FAIR 69 58 67 NW12G21 29.64R WISCASSET FAIR 71 54 54 W9G22 29.70R ROCKLAND FAIR 71 59 65 NW8G18 29.66S FRYEBURG FAIR 69 56 62 NW5 29.74R LEWISTONAUBURN PTSUNNY 69 53 56 N17G25 29.72R AUGUSTA FAIR 68 51 54 NW20G30 29.70R WATERVILLE PTSUNNY 68 54 60 NW8 29.67S BANGOR PTSUNNY 68 56 65 NW15 29.66R GREENVILLE N/A 55 49 80 NW13G21 29.70R MILLINOCKET CLOUDY 63 49 60 NW12 29.67R HOULTON PTSUNNY 60 49 66 N17G25 29.62R PRESQUE ISLE CLOUDY 58 47 66 NW17G28 29.65R FRENCHVILLE CLOUDY 55 44 66 NW18 29.63S CARIBOU CLOUDY 58 45 62 NW15G24 29.63R $$ NHZ002-005-008-009-011-012-014-191400- NEW HAMPSHIRE CITY SKY/WX TMP DP RH WIND PRES REMARKS PORTSMOUTH PTSUNNY 74 57 54 NW20 29.71R ROCHESTER FAIR 73 59 61 NW16G25 29.72S HAZE NASHUA FAIR 73 61 65 NW12G21 29.77R MANCHESTER PTSUNNY 74 57 55 N17G28 29.75R CONCORD FAIR 71 60 68 NW12 29.76R LACONIA FAIR 69 54 58 NW15G23 29.77R PLYMOUTH FAIR 67 53 60 NW14G23 29.78R BERLIN PTSUNNY 61 50 67 N14G20 29.80R WHITEFIELD PTSUNNY 61 51 70 VRB7G20 29.83R JAFFREY FAIR 71 58 63 VRB6G18 29.80R KEENE PTSUNNY 72 59 63 N12 29.80R LEBANON PTSUNNY 67 53 61 NW13G22 29.81R MT WASHINGTON FOG 39 39 100 NW63G79 N/A VSB 1/16 $$ VTZ005-007-008-191400- VERMONT CITY SKY/WX TMP DP RH WIND PRES REMARKS ST JOHNSBURY N/A 63 52 67 MISG 29.83R MONTPELIER FAIR 60 53 77 NW23G30 29.89R BURLINGTON PTSUNNY 61 50 67 N15 29.90R $$ MAZ007-012-024-CTZ003-RIZ002-NYZ038-NYZ072-191400- SOUTHERN NEW ENGLAND AND NY CITY SKY/WX TMP DP RH WIND PRES REMARKS BOSTON PTSUNNY 76 60 57 NW13 29.73R WORCESTER FAIR 70 58 65 N16 29.79R NANTUCKET PTSUNNY 67 65 93 W9 29.71R PROVIDENCE PTSUNNY 78 66 66 N16G24 29.75R HARTFORD PTSUNNY 77 64 64 N13 29.78R ALBANY FAIR 73 57 57 N16 29.85R NEW YORK CITY PTSUNNY 81 68 64 NW14 29.77R $$ ANZ081-ANZ082-ANZ150-NHZ014-MEZ023>029-191400- COASTAL MARINE OBSERVATIONS STATION/POSITION TIME TEMP WIND PRES WAVE AIR SEA DIR/SP/G HT/PER (UTC) (F) (DEG/KT/KT) (MB) (FT/S) MOUNT DESERT ROC 1300 59 290/ 17/ 18 1003.6R MATINICUS ROCK 1200 64 310/ 17/ 18 1003.5R ISLE OF SHOALS 1200 67 320/ 13/ 15 1005.4R JEFFREYS LEDGE 1236 56 N/A 3/ 6 $$ .............KEY.............. WCI - WIND CHILL TC - TEMPERATURE IN CELSIUS VSB - VISIBILITY IN MILES HX - HEAT INDEX FAIR- INDICATES FEW OR NO CLOUDS BELOW 12,000 FT, WITH NO SIGNIFICANT WEATHER AND/OR OBSTRUCTIONS TO VISIBILITY.

USA.gov is the U.S. government's official web portal to all federal, state and local government web resources and services.